1998-067XE

Last updated on Fri Dec 13 2024 00:02:07 GMT+0000 (Coordinated Universal Time)

1 62298U 98067XE 24347.66836448 .00072976 00000+0 11994-2 0 9998 2 62298 51.6362 151.0990 0010547 322.5881 37.4374 15.51661144 511
UTC large
Height (km)
Speed (km/s)
/
Latitude / Longitude
Inclination (degrees)
Orbital Period (minutes)
Azimuth
Elevation
Range (km)
Doppler Factor

Next 0 passes for location: London (51.5072 / 0.1276)

Sorry there are no passes over London.